User: anonymous   Login
Location: Unspecified
(0.0000°N, 0.0000°E)
Time: 10:59:07
(UTC+00:00)
Language:

OBJECT BH - Orbit

View from above orbital plane
View from above orbital plane
View from above satellite
View from above satellite

Ground track
Ground track

The orbit is defined by the following mean orbital elements,

1 61790U          26145.59406705 +.00000000 +00000-0 +15750-3 0 00001
2 61790  97.3258 346.5660 0006936 135.1294 225.0491 14.97778120    07
Epoch (UTC): 25 May 2026 14:15:27
Eccentricity: 0.0006936
inclination: 97.3258°
perigee height: 569 km
apogee height: 579 km
right ascension of ascending node: 346.5660°
argument of perigee: 135.1294°
revolutions per day: 14.97778120
mean anomaly at epoch: 225.0491°

The dashed part of the orbit path shows where the satellite is in the earth's shadow,  

DLR